Location: General Nathan Twining Observatory
(34.5931°N, 106.8201°W)
Time: 20:31:49
(UTC-06:00)

Daily predictions for brighter satellites

Satellite Brightness Start Highest point End
(mag) Time Altitude Azimuth Time Altitude Azimuth Time Altitude Azimuth
Meteor 2-5 Rocket 4.2 19:45:27 10° NNW 19:51:11 71° W 19:57:01 10° S
ISS -3.3 19:55:05 10° SSW 19:58:08 39° SE 20:01:13 10° ENE
Delta 2 Rocket 4.0 19:54:33 10° W 19:59:33 60° SSW 20:03:54 10° ESE
Cosmos 1818 4.4 19:55:15 10° N 20:00:10 34° NE 20:05:03 10° ESE
CZ-3B DEB 4.4 19:53:16 10° WSW 20:05:24 45° NW 20:11:16 10° NNE
GP-B 4.4 20:02:37 10° SE 20:05:55 21° E 20:09:14 10° NNE
Meteor 1-4 Rocket 2.9 20:03:13 10° SSE 20:06:27 39° E 20:09:43 10° NNE
H-II Stage 2 2.4 20:05:20 10° SW 20:07:04 21° S 20:08:28 13° SE
CZ-2D R/B 4.2 20:04:26 10° SE 20:07:43 27° ENE 20:11:03 10° NNE
Cosmos 1378 4.1 20:04:26 10° NNW 20:08:06 53° W 20:11:43 10° S
Cosmos 372 Rocket 4.3 20:03:50 10° S 20:08:35 41° ESE 20:13:24 10° NNE
Cosmos-2242 4.1 20:07:15 10° SE 20:10:34 23° E 20:13:55 10° NE
Cosmos 1805 3.2 20:07:30 10° S 20:11:20 62° E 20:15:12 10° NNE
In-Cosmos 22 4.0 20:06:36 10° N 20:11:52 64° E 20:17:05 10° SSE
FREGAT/IRIS 3.4 20:08:55 10° S 20:11:55 55° W 20:14:56 10° NNW
Resurs 01 Rocket 1.8 20:09:41 10° SSE 20:13:56 50° ENE 20:18:13 10° N
RESURS DK-1 2.8 20:10:50 10° NNW 20:14:56 66° WSW 20:19:01 10° SSE
Cosmos 1544 2.9 20:13:33 10° S 20:17:10 76° E 20:20:50 10° N
Cosmos 2098 Rocket 4.4 20:15:19 10° S 20:22:19 65° E 20:29:51 10° NNE
FENGYUN 3A 3.7 20:17:37 10° SSE 20:23:02 85° WSW 20:28:27 10° NNW
USA 215 3.7 20:17:51 10° ENE 20:23:48 37° SE 20:29:42 10° SSW
Lacrosse 5 4.1 20:19:45 10° W 20:23:50 24° NW 20:27:55 10° NNE
Cosmos 1605 Rocket 4.2 20:22:04 10° S 20:28:19 79° W 20:34:41 10° N
Cosmos 1470 3.4 20:24:54 10° SSE 20:28:30 33° E 20:32:06 10° NNE
Cosmos 1833 Rocket 3.3 20:23:29 10° N 20:28:40 37° ENE 20:31:55 20° ESE
Spot 2 Rocket 3.4 20:24:17 10° SSE 20:29:21 71° ENE 20:34:27 10° N
Cosmos 2100 Rocket 4.3 20:25:33 10° SSE 20:31:27 44° E 20:37:25 10° NNE
Cosmos 1733 3.8 20:28:21 10° SSE 20:31:51 34° E 20:35:23 10° NNE
Cosmos 1867 3.8 20:27:40 10° SW 20:33:05 73° WNW 20:38:33 10° NNE
Cosmos 2278 Rocket 3.9 20:27:58 10° SW 20:33:09 37° WNW 20:38:23 10° N
SJ-6B 4.5 20:32:42 10° SSW 20:36:06 33° W 20:39:31 10° NNW
ATLAS 5 CENTAUR R/B 1.6 20:35:08 10° SSW 20:39:44 87° ESE 20:44:42 10° NNE
Yuri Rocket 4.4 20:38:07 10° WSW 20:41:43 25° SSW 20:43:27 19° SSE
Cosmos 1340 Rocket 3.7 20:39:36 10° NNE 20:42:57 29° ENE 20:42:57 29° ENE
H-2A R/B 3.2 20:40:28 10° S 20:44:18 62° W 20:48:12 10° NNW
Envisat 3.5 20:45:57 30° ESE 20:47:33 37° ENE 20:52:13 10° N
Cosmos 2297 4.3 20:44:35 10° SSW 20:50:12 60° WNW 20:55:53 10° NNE
Resurs 1-3 3.9 20:47:19 10° S 20:51:39 69° WSW 20:56:02 10° NNW
Gblst 52 Del rocket 4.5 20:47:33 10° SSW 20:53:26 47° SE 20:55:47 30° ENE
Cosmos 1802 Rocket 4.0 20:48:08 10° SSE 20:54:00 52° E 20:59:57 10° NNE
Cosmos 1408 Rocket 3.5 20:55:26 10° N 20:59:55 85° E 21:02:21 27° S
ERS-1 Rocket 4.1 21:03:18 27° NE 21:03:18 27° NE 21:06:52 10° NNE
Delta 128 4.3 20:58:32 10° WSW 21:02:39 35° S 21:03:09 34° S
SeaSat 1 3.4 20:58:25 10° S 21:03:06 45° WSW 21:07:50 10° NW
Geosat 4.5 20:58:58 10° NNE 21:03:56 62° WNW 21:08:52 10° SW
Cosmos 1048 Rocket 3.9 20:59:21 10° NNW 21:04:28 83° WSW 21:07:19 27° SSE
Cosmos 2082 Rocket 2.1 21:01:16 10° NNW 21:06:58 90° WSW 21:09:47 31° SSE
GPS 2-05 Rocket1 3.0 21:05:39 10° W 21:09:03 72° NW 21:09:03 72° NW
Cosmos 2061 Rocket 3.9 21:03:07 10° S 21:09:28 79° E 21:15:55 10° N
Cosmos 1271 Rocket 3.2 21:06:38 10° SSW 21:10:36 62° W 21:14:35 10° N
Cosmos 1953 4.4 21:07:08 10° SW 21:10:40 29° WNW 21:14:13 10° NNW
TIMED 4.3 21:07:15 10° SSW 21:11:36 82° ESE 21:16:00 10° NNE
Meteor 1-16 Rocket 4.3 21:11:25 36° SSE 21:13:35 56° E 21:19:22 10° NNE
SAR-Lupe-4 4.3 21:15:34 44° SW 21:16:14 51° W 21:19:44 10° NNW
Helios 1B rocket 3.3 21:12:19 10° N 21:16:19 50° WNW 21:20:17 10° SSW
Timation 2 Rocket 3.8 21:12:26 10° NNW 21:18:42 88° ENE 21:20:52 43° SSE
Cosmos 1939 Rocket 3.4 21:20:10 51° NNE 21:20:10 51° NNE 21:23:25 10° N
Cosmos 1459 Rocket 4.1 21:13:37 10° S 21:19:53 78° W 21:26:06 10° N
Tiangong 1 3.9 21:19:41 10° WSW 21:20:18 11° SW 21:20:18 11° SW
Meteor 1-29 4.0 21:18:42 10° N 21:22:03 45° WNW 21:23:14 31° SW
OAO 2 Rocket 3.7 21:19:51 10° SW 21:24:21 51° S 21:24:21 51° S
Cosmos 1674 3.9 21:21:58 10° NNW 21:25:32 40° W 21:26:29 33° SW
Cosmos 2173 Rocket 4.2 21:20:54 10° SSW 21:27:01 70° W 21:33:16 10° N
COSMOS 2487 4.1 21:27:39 10° NW 21:30:50 31° WSW 21:30:55 31° WSW
Helios 1A 4.1 21:29:49 31° SW 21:31:06 40° W 21:35:04 10° NNW
Cosmos 1864 Rocket 4.4 21:32:40 61° E 21:32:40 61° E 21:38:48 10° NNE
ISS -1.2 21:32:21 10° W 21:34:43 18° NNW 21:34:47 18° NNW
Lacrosse 5 rocket 2.9 21:31:57 10° NNW 21:33:58 27° NNW 21:33:58 27° NNW
Cosmos 2251 Rocket 4.1 21:37:52 10° N 21:41:56 49° NNE 21:41:56 49° NNE
USA 215 3.8 22:00:32 10° NE 22:06:51 54° NW 22:13:09 10° WSW
Cosmos 1725 Rocket 4.2 22:08:00 67° W 22:08:00 67° W 22:14:11 10° N
H-2A R/B (2) 3.9 22:05:34 10° WSW 22:08:06 30° SW 22:08:06 30° SW
Cosmos 1833 Rocket 4.4 22:07:50 10° NW 22:12:20 25° WSW 22:13:41 23° WSW
H-2A R/B 4.4 22:42:52 17° N 22:42:52 17° N 22:44:01 10° N
